Location: Home
(42.5358°N, 72.7383°W)
Time: 11:49:57
(UTC-05:00)

Vanguard 2 Rocket - Pass Details

Date: 17 December 2025
Orbit: 553 x 3287 km, 32.9° (Epoch: 17 January)

Event Time Altitude Azimuth Distance (km) Brightness Sun altitude
Rises 05:04:18 0° 207° (SSW) 6,594 11.1 -23.2°
Reaches altitude 10° 05:09:10 10° 198° (SSW) 5,855 10.9 -22.3°
Maximum altitude 05:24:43 32° 144° (SE) 4,613 10.9 -19.5°
Drops below altitude 10° 05:40:01 10° 91° (E) 5,819 12.2 -16.8°
Sets 05:44:45 0° 82° (E) 6,557 12.5 -16.0°
